TimeMDT,TemperatureF,Dew PointF,Humidity,Sea Level PressureIn,VisibilityMPH,Wind Direction,Wind SpeedMPH,Gust SpeedMPH,PrecipitationIn,Events,Conditions,WindDirDegrees,DateUTC
12:53 AM,46.9,21.9,37,29.73,10.0,ENE,10.4,-,N/A,,Clear,60,2013-05-28 06:53:00
1:53 AM,45.0,23.0,42,29.73,10.0,East,3.5,-,N/A,,Clear,100,2013-05-28 07:53:00
2:53 AM,42.1,23.0,47,29.73,10.0,Calm,Calm,-,N/A,,Clear,0,2013-05-28 08:53:00
3:53 AM,39.0,21.9,50,29.72,10.0,ENE,3.5,-,N/A,,Clear,70,2013-05-28 09:53:00
4:53 AM,39.9,23.0,51,29.72,10.0,ESE,5.8,-,N/A,,Clear,120,2013-05-28 10:53:00
5:53 AM,37.9,23.0,55,29.73,10.0,Calm,Calm,-,N/A,,Clear,0,2013-05-28 11:53:00
6:53 AM,41.0,24.1,51,29.73,10.0,Calm,Calm,-,N/A,,Clear,0,2013-05-28 12:53:00
7:53 AM,50.0,28.0,43,29.70,10.0,Calm,Calm,-,N/A,,Clear,0,2013-05-28 13:53:00
8:53 AM,61.0,28.0,29,29.70,10.0,Calm,Calm,-,N/A,,Clear,0,2013-05-28 14:53:00
9:53 AM,66.0,24.1,20,29.70,10.0,WSW,3.5,-,N/A,,Clear,250,2013-05-28 15:53:00
10:53 AM,69.1,21.0,16,29.69,10.0,SSW,10.4,-,N/A,,Clear,210,2013-05-28 16:53:00
11:53 AM,71.1,21.0,15,29.67,10.0,SSW,10.4,-,N/A,,Clear,210,2013-05-28 17:53:00
12:53 PM,73.9,21.0,14,29.65,10.0,SW,11.5,17.3,N/A,,Clear,230,2013-05-28 18:53:00
1:53 PM,75.0,19.9,13,29.63,10.0,WSW,13.8,25.3,N/A,,Clear,240,2013-05-28 19:53:00
2:53 PM,77.0,19.0,11,29.61,10.0,SSW,16.1,28.8,N/A,,Clear,210,2013-05-28 20:53:00
3:53 PM,75.9,19.0,12,29.59,10.0,Variable,5.8,18.4,N/A,,Partly Cloudy,0,2013-05-28 21:53:00
4:53 PM,77.0,12.9,9,29.57,10.0,SW,16.1,23.0,N/A,,Clear,230,2013-05-28 22:53:00
5:53 PM,73.0,15.1,11,29.58,10.0,SW,11.5,20.7,N/A,,Clear,220,2013-05-28 23:53:00
6:53 PM,73.0,18.0,12,29.56,10.0,WSW,10.4,-,N/A,,Partly Cloudy,240,2013-05-29 00:53:00
7:53 PM,70.0,19.9,15,29.54,10.0,SW,6.9,-,N/A,,Partly Cloudy,230,2013-05-29 01:53:00
8:53 PM,66.0,28.9,25,29.57,10.0,West,9.2,27.6,N/A,,Overcast,280,2013-05-29 02:53:00
9:53 PM,63.0,32.0,31,29.58,10.0,WNW,10.4,-,N/A,,Overcast,290,2013-05-29 03:53:00
10:28 PM,60.8,37.4,42,29.81,10.0,SSW,10.4,20.7,0.00,Rain,Light Rain,210,2013-05-29 04:28:00
10:53 PM,60.1,39.0,46,29.61,10.0,West,4.6,21.9,0.00,Rain,Light Rain,260,2013-05-29 04:53:00
11:28 PM,57.2,39.2,51,29.84,10.0,NNW,10.4,-,0.00,,Overcast,340,2013-05-29 05:28:00
11:53 PM,55.0,41.0,59,29.66,10.0,North,10.4,20.7,0.00,,Overcast,350,2013-05-29 05:53:00